Regional Weather Roundup
Issued by NWS

Home | Current Version | Previous Version | Graphics & Text | Print | Product List | Glossary Off
Versions: 1 2 3 4 5 6 7 8 9 10 11 12 13 14 15 16 17 18 19 20 21 22 23 24 25 26 27 28 29 30 31 32 33 34 35 36 37 38 39 40 41 42 43 44 45 46 47 48 49 50

662
ASUS43 KDTX 031810
RWRMI
MICHIGAN HOURLY REGIONAL WEATHER ROUNDUP
NATIONAL WEATHER SERVICE DETROIT/PONTIAC MI
200 PM EDT TUE MAY 03 2016

NOTE: "FAIR" INDICATES FEW OR NO CLOUDS BELOW 12,000 FEET WITH NO
SIGNIFICANT WEATHER AND/OR OBSTRUCTION TO VISIBILITY.

MIZ047>049-052>055-059>063-066>070-074>076-081>083-031900-
SOUTHEAST LOWER MICHIGAN

CITY           SKY/WX    TMP DP  RH WIND       PRES   REMARKS
ADRIAN         PTSUNNY   62  36  37 MISG      29.88F
6HR MIN TEMP:  50; 6HR MAX TEMP:  62;

ALMA           PTSUNNY   64  33  30 W9G17     29.84F
6HR MIN TEMP:  42; 6HR MAX TEMP:  65;

ANN ARBOR      PTSUNNY   61  31  32 CALM      29.86F
BAD AXE        SUNNY     62  33  33 W7        29.84F
CARO           SUNNY     62  34  35 W8        29.83F
DETROIT CITY   PTSUNNY   59  38  45 SE9       29.86F
6HR MIN TEMP:  45; 6HR MAX TEMP:  61;

DETROIT        PTSUNNY   62  38  40 W7        29.87F
6HR MIN TEMP:  43; 6HR MAX TEMP:  63;

FLINT          MOSUNNY   66  37  34 W10       29.86F
6HR MIN TEMP:  43; 6HR MAX TEMP:  66;

GROSSE ILE     CLOUDY    55  48  76 S10       29.87F
HILLSDALE      CLOUDY    58  28  30 CALM      29.88F
6HR MIN TEMP:  48; 6HR MAX TEMP:  60;

HOWELL         MOSUNNY   61  34  36 W7        29.86F

CITY           SKY/WX    TMP DP  RH WIND       PRES   REMARKS
JACKSON        PTSUNNY   61  34  36 W7        29.87F
6HR MIN TEMP:  46; 6HR MAX TEMP:  63;

LAMBERTVILLE   SUNNY     63  44  49 NW7       29.88F
6HR MIN TEMP:  50; 6HR MAX TEMP:  63;

LANSING        MOSUNNY   63  37  38 W14       29.87F
6HR MIN TEMP:  43; 6HR MAX TEMP:  63;

LAPEER         FAIR      62  31  32 W7        29.85F
6HR MIN TEMP:  38; 6HR MAX TEMP:  62;

MASON          PTSUNNY   63  38  40 W7G18     29.87F
MONROE         PTSUNNY   59  47  64 SW8       29.87F
MT. CLEMENS    SUNNY     60  39  46 SE9       29.85F
6HR MIN TEMP:  44; 6HR MAX TEMP:  60;

PONTIAC        PTSUNNY   61  32  33 CALM      29.85F
6HR MIN TEMP:  43; 6HR MAX TEMP:  62;

PORT HOPE        N/A     50  40  68 E15       29.82F
6HR MIN TEMP:  46; 6HR MAX TEMP:  59;

PORT HURON     SUNNY     61  32  33 CALM      29.86F
TRI CITIES     MOSUNNY   65  35  33 MISG      29.83F
6HR MIN TEMP:  46; 6HR MAX TEMP:  67;

MIDLAND        FAIR      65  33  30 SW6       29.81F
6HR MIN TEMP:  40; 6HR MAX TEMP:  66;

TROY           PTSUNNY   65  31  27 W6        29.87F
SAGINAW HB     SUNNY     64  32  29 SW8G17    29.83F
$$
MIZ043>046-050>051-056>058-064>065-071>073-077>080-031900-
SOUTHWEST LOWER MICHIGAN

CITY           SKY/WX    TMP DP  RH WIND       PRES   REMARKS
BATTLE CREEK   MOSUNNY   62  36  37 VRB5      29.88F
6HR MIN TEMP:  44; 6HR MAX TEMP:  63;

BENTON HARBOR  SUNNY     60  36  40 W8        29.91F
6HR MIN TEMP:  40; 6HR MAX TEMP:  60;

BIG RAPIDS     MOSUNNY   64  29  26 SW9       29.80F
6HR MIN TEMP:  37; 6HR MAX TEMP:  64;

COLDWATER      CLOUDY    59  38  45 NW6       29.88F
6HR MIN TEMP:  49; 6HR MAX TEMP:  62;

FREMONT        FAIR      64  30  28 SW12G21   29.84F
HOLLAND        SUNNY     61  35  37 SW15      29.89F
6HR MIN TEMP:  44; 6HR MAX TEMP:  62;

GRAND RAPIDS   MOSUNNY   64  36  35 W13G21    29.87F
6HR MIN TEMP:  45; 6HR MAX TEMP:  65;

IONIA          FAIR      64  35  34 W13G20    29.85F
6HR MIN TEMP:  42; 6HR MAX TEMP:  64;

KALAMAZOO      PTSUNNY   61  36  39 NW9       29.89F
6HR MIN TEMP:  44; 6HR MAX TEMP:  64;

LUDINGTON      SUNNY     58  40  51 SW10      29.83F
6HR MIN TEMP:  40; 6HR MAX TEMP:  58;

MARSHALL       PTSUNNY   63  36  36 W7        29.87
                                      6HR PCP:  0.10;

MOUNT PLEASANT MOSUNNY   67  35  31 SW9       29.81F
6HR MIN TEMP:  42; 6HR MAX TEMP:  67;

MUSKEGON       MOSUNNY   61  36  39 SW13      29.87F
6HR MIN TEMP:  42; 6HR MAX TEMP:  61;

SOUTH HAVEN    MOSUNNY   60  32  34 W9        29.90F
$$
MIZ016>042-031900-
NORTHERN LOWER MICHIGAN

CITY           SKY/WX    TMP DP  RH WIND       PRES   REMARKS
ALPENA         MOSUNNY   68  31  25 SW13      29.75F
6HR MIN TEMP:  44; 6HR MAX TEMP:  69;

BEAVER ISLAND  CLOUDY    59  35  40 SW15G22   29.73F
6HR MIN TEMP:  47; 6HR MAX TEMP:  61;

BELLAIRE       SUNNY     68  31  25 SW7G17    29.75F
6HR MIN TEMP:  38; 6HR MAX TEMP:  68;

CADILLAC       PTSUNNY   63  33  32 SW12      29.78F
CHARLEVOIX     PTSUNNY   63  34  34 SW13G20   29.77F
FRANKFORT      MOSUNNY   57  41  54 SW12G17   29.80F
GAYLORD        MOSUNNY   65  28  24 W13G28    29.75F
6HR MIN TEMP:  40; 6HR MAX TEMP:  66;

GRAYLING       PTSUNNY   66  32  28 W12G21    29.76F
HARBOR SPRINGS MOSUNNY   61  36  38 SW6       29.74F
HOUGHTON LAKE  PTSUNNY   62  34  35 SW8       29.78F
6HR MIN TEMP:  39; 6HR MAX TEMP:  65;

MANISTEE       SUNNY     64  36  34 SW12G17   29.80F
OSCODA         SUNNY     65  34  32 S17G23    29.78F
6HR MIN TEMP:  44; 6HR MAX TEMP:  65;

PELLSTON       CLOUDY    66  29  24 SW12      29.73F
6HR MIN TEMP:  37; 6HR MAX TEMP:  66;

ROGERS CITY    PTSUNNY   67  29  24 W10G16    29.74F
TRAVERSE CITY  PTSUNNY   69  32  25 W12       29.75F
6HR MIN TEMP:  45; 6HR MAX TEMP:  70;

$$
MIZ007>008-015-031900-
EASTERN UPPER MICHIGAN

CITY           SKY/WX    TMP DP  RH WIND       PRES   REMARKS
KINROSS          N/A     61  36  39 S6G17     29.71F
6HR MIN TEMP:  43; 6HR MAX TEMP:  61;

MACKINAC ISLAN PTSUNNY   56  37  48 SW7       29.72F
6HR MIN TEMP:  45; 6HR MAX TEMP:  58;

NEWBERRY       CLOUDY    55  36  47 S14G20    29.69F
6HR MIN TEMP:  43; 6HR MAX TEMP:  57;

S. S. MARIE    CLOUDY    62  34  35 S12       29.69F
6HR MIN TEMP:  38; 6HR MAX TEMP:  63;

MUNISING         N/A     64  31  28 W9        29.64F
6HR MIN TEMP:  45; 6HR MAX TEMP:  66;

$$
MIZ004>006-011>014-085-031900-
CENTRAL UPPER MICHIGAN

CITY           SKY/WX    TMP DP  RH WIND       PRES   REMARKS
MANISTIQUE     CLOUDY    47  40  76 S9        29.70F
6HR MIN TEMP:  42; 6HR MAX TEMP:  50;

ESCANABA       CLOUDY    59  37  44 S12       29.66F
6HR MIN TEMP:  37; 6HR MAX TEMP:  63;

SAWYER-GWINN   CLOUDY    63  32  31 W20G25    29.67F
$$
MIZ001>003-009>011-084-031900-
WESTERN UPPER MICHIGAN

CITY           SKY/WX    TMP DP  RH WIND       PRES   REMARKS
IRON MOUNTAIN  CLOUDY    64  32  30 W17G36    29.68F
6HR MIN TEMP:  41; 6HR MAX TEMP:  67;

HOUGHTON       LGT RAIN  48  43  82 SW17G24   29.64F
6HR MIN TEMP:  47; 6HR MAX TEMP:  59; 6HR PCP:  0.16;

COPPER HARBOR    N/A     45  40  82 N6        29.63F
6HR MIN TEMP:  43; 6HR MAX TEMP:  58; 6HR PCP:  0.06;

IRONWOOD         N/A     52  43  71 W10       29.69S
6HR MIN TEMP:  52; 6HR MAX TEMP:  57; 6HR PCP:  0.02;

$$

ABBREVIATIONS USED IN REMARKS
   TC - TEMPERATURE IN CELSIUS
  WCI - WIND CHILL INDEX
   HX - HEAT INDEX
  VSB - VISIBILITY





USA.gov is the U.S. government's official web portal to all federal, state and local government web resources and services.